Location: Newark
(55.7083°N, 13.1992°E)
Time: 15:36:58
(UTC+00:00)

ISS - Pass Details

Date: 25 January 2020
Orbit: 416 x 422 km, 51.6° (Epoch: 17 February)

Event Time Altitude Azimuth Distance (km) Brightness Sun altitude
Rises 16:35:36 0° 208° (SSW) 2,370 0.9 -9.6°
Reaches altitude 10° 16:38:20 10° 184° (S) 1,507 -0.6 -10.0°
Maximum altitude 16:40:21 15° 147° (SSE) 1,237 -1.5 -10.3°
Enters shadow 16:42:22 10° 111° (ESE) 1,508 -1.4 -10.5°
